When you browse on this site, cookies collect data to enhance your experience and personalize the content and advertising you see.
Visit our Privacy Policy to learn more. By continuing to use the site, you agree to this use of cookies and data.
  • In Sweden
  • List of Countries
  • For 7 days
  • Water Temperature
  • Weather Map
  • Weather Widgets
  • user-avatar
    Login

    Hourly Weather Maun

    Today, 1 April, Wednesday

    Time Temperature Precipitation Wind Pressure Humidity
    00:00 +26°C° 0 mm 1 mps 681 mmHg 59%
    01:00 +25°C° 0 mm 1 mps 681 mmHg 62%
    02:00 +24°C° 0 mm 2 mps 681 mmHg 70%
    03:00 +24°C° 0.4 mm 2 mps 681 mmHg 72%
    04:00 +23°C° 0.4 mm 2 mps 680 mmHg 74%
    05:00 +23°C° 0.4 mm 2 mps 680 mmHg 76%
    06:00 +24°C° 0.1 mm 2 mps 681 mmHg 73%
    07:00 +24°C° 0.1 mm 2 mps 682 mmHg 71%
    08:00 +25°C° 0 mm 1 mps 682 mmHg 64%
    09:00 +26°C° 0.1 mm 1 mps 683 mmHg 60%
    10:00 +27°C° 0.1 mm 1 mps 683 mmHg 56%
    11:00 +28°C° 0.1 mm 1 mps 683 mmHg 52%
    12:00 +30°C° 0 mm 1 mps 683 mmHg 48%
    13:00 +31°C° 0 mm 1 mps 682 mmHg 44%
    14:00 +32°C° 0 mm 1 mps 682 mmHg 44%
    15:00 +32°C° 0 mm 1 mps 682 mmHg 44%
    16:00 +32°C° 0 mm 1 mps 681 mmHg 43%
    17:00 +32°C° 0 mm 1 mps 681 mmHg 42%
    18:00 +30°C° 0.3 mm 1 mps 681 mmHg 48%
    19:00 +28°C° 0.3 mm 1 mps 681 mmHg 54%
    20:00 +27°C° 0.3 mm 1 mps 681 mmHg 60%
    21:00 +26°C° 0.2 mm 1 mps 681 mmHg 61%
    22:00 +26°C° 0.2 mm 1 mps 681 mmHg 62%
    23:00 +25°C° 0.2 mm 1 mps 681 mmHg 63%

    Tomorrow, 2 April, Thursday

    Time Temperature Precipitation Wind Pressure Humidity
    00:00 +25°C° 0 mm 2 mps 681 mmHg 65%
    01:00 +24°C° 0 mm 2 mps 681 mmHg 67%
    02:00 +24°C° 0 mm 2 mps 681 mmHg 68%
    03:00 +22°C° 0 mm 3 mps 681 mmHg 63%
    04:00 +22°C° 0 mm 3 mps 681 mmHg 58%
    05:00 +22°C° 0 mm 3 mps 681 mmHg 53%
    06:00 +22°C° 0 mm 4 mps 681 mmHg 50%
    07:00 +23°C° 0 mm 5 mps 682 mmHg 48%
    08:00 +24°C° 0 mm 7 mps 683 mmHg 45%
    09:00 +26°C° 0 mm 6 mps 683 mmHg 42%
    10:00 +28°C° 0 mm 6 mps 684 mmHg 39%
    11:00 +29°C° 0 mm 6 mps 684 mmHg 36%
    12:00 +32°C° 0 mm 5 mps 684 mmHg 34%
    13:00 +33°C° 0 mm 4 mps 683 mmHg 32%
    14:00 +34°C° 0 mm 4 mps 683 mmHg 31%
    15:00 +34°C° 0 mm 4 mps 682 mmHg 31%
    16:00 +33°C° 0 mm 4 mps 682 mmHg 32%
    17:00 +33°C° 0 mm 3 mps 681 mmHg 32%
    18:00 +30°C° 0 mm 3 mps 681 mmHg 37%
    19:00 +29°C° 0 mm 2 mps 681 mmHg 41%
    20:00 +27°C° 0 mm 2 mps 681 mmHg 46%
    21:00 +26°C° 0 mm 2 mps 682 mmHg 47%
    22:00 +26°C° 0 mm 3 mps 682 mmHg 49%
    23:00 +25°C° 0 mm 3 mps 682 mmHg 51%

    Day after tomorrow, 3 April, Friday

    Time Temperature Precipitation Wind Pressure Humidity
    00:00 +25°C° 0 mm 3 mps 682 mmHg 54%
    01:00 +24°C° 0 mm 3 mps 682 mmHg 56%
    02:00 +22°C° 0 mm 3 mps 682 mmHg 59%
    03:00 +22°C° 0 mm 4 mps 682 mmHg 60%
    04:00 +21°C° 0 mm 4 mps 682 mmHg 61%
    05:00 +20°C° 0 mm 4 mps 682 mmHg 62%
    06:00 +21°C° 0 mm 4 mps 683 mmHg 62%
    07:00 +21°C° 0 mm 5 mps 683 mmHg 62%
    08:00 +21°C° 0 mm 5 mps 684 mmHg 62%
    09:00 +23°C° 0 mm 5 mps 684 mmHg 56%
    10:00 +26°C° 0 mm 4 mps 684 mmHg 51%
    11:00 +28°C° 0 mm 4 mps 684 mmHg 45%
    12:00 +29°C° 0 mm 3 mps 684 mmHg 42%
    13:00 +30°C° 0 mm 3 mps 683 mmHg 38%
    14:00 +31°C° 0 mm 2 mps 683 mmHg 34%
    15:00 +31°C° 0 mm 2 mps 682 mmHg 34%
    16:00 +31°C° 0 mm 2 mps 682 mmHg 33%
    17:00 +31°C° 0 mm 2 mps 681 mmHg 33%
    18:00 +29°C° 0 mm 2 mps 681 mmHg 37%
    19:00 +28°C° 0 mm 2 mps 682 mmHg 42%
    20:00 +26°C° 0 mm 2 mps 682 mmHg 46%
    21:00 +25°C° 0 mm 1 mps 682 mmHg 50%
    22:00 +24°C° 0 mm 1 mps 682 mmHg 53%
    23:00 +23°C° 0 mm 1 mps 682 mmHg 56%

    4 April, Saturday

    Time Temperature Precipitation Wind Pressure Humidity
    00:00 +24°C° 0 mm 1 mps 682 mmHg 55%
    01:00 +24°C° 0 mm 2 mps 682 mmHg 53%
    02:00 +24°C° 0 mm 2 mps 682 mmHg 52%
    03:00 +23°C° 0 mm 2 mps 682 mmHg 53%
    04:00 +21°C° 0 mm 2 mps 682 mmHg 54%
    05:00 +20°C° 0 mm 2 mps 681 mmHg 56%
    06:00 +21°C° 0 mm 2 mps 682 mmHg 57%
    07:00 +21°C° 0 mm 3 mps 682 mmHg 59%
    08:00 +22°C° 0 mm 3 mps 683 mmHg 61%
    09:00 +25°C° 0 mm 3 mps 683 mmHg 55%
    10:00 +27°C° 0 mm 3 mps 684 mmHg 49%
    11:00 +30°C° 0 mm 3 mps 684 mmHg 42%
    12:00 +30°C° 0 mm 2 mps 683 mmHg 40%
    13:00 +30°C° 0 mm 2 mps 683 mmHg 38%
    14:00 +31°C° 0 mm 1 mps 682 mmHg 37%
    15:00 +30°C° 0 mm 1 mps 681 mmHg 38%
    16:00 +30°C° 0 mm 1 mps 681 mmHg 39%
    17:00 +29°C° 0 mm 2 mps 681 mmHg 40%
    18:00 +28°C° 0 mm 1 mps 681 mmHg 42%
    19:00 +27°C° 0 mm 1 mps 681 mmHg 45%
    20:00 +26°C° 0 mm 1 mps 681 mmHg 47%
    21:00 +26°C° 0 mm 1 mps 682 mmHg 48%
    22:00 +26°C° 0 mm 1 mps 682 mmHg 49%
    23:00 +25°C° 0 mm 1 mps 682 mmHg 50%

    5 April, Sunday

    Time Temperature Precipitation Wind Pressure Humidity
    00:00 +25°C° 0 mm 1 mps 682 mmHg 51%
    01:00 +25°C° 0 mm 1 mps 681 mmHg 52%
    02:00 +24°C° 0 mm 1 mps 681 mmHg 53%
    03:00 +24°C° 0 mm 1 mps 681 mmHg 54%
    04:00 +23°C° 0 mm 1 mps 681 mmHg 55%
    05:00 +23°C° 0 mm 1 mps 681 mmHg 56%
    06:00 +23°C° 0 mm 1 mps 681 mmHg 54%
    07:00 +24°C° 0 mm 1 mps 682 mmHg 53%
    08:00 +25°C° 0 mm 1 mps 683 mmHg 51%
    09:00 +27°C° 0 mm 1 mps 683 mmHg 45%
    10:00 +29°C° 0 mm 2 mps 683 mmHg 38%
    11:00 +32°C° 0 mm 2 mps 684 mmHg 32%
    12:00 +32°C° 0 mm 1 mps 683 mmHg 30%
    13:00 +33°C° 0 mm 1 mps 683 mmHg 28%
    14:00 +31°C° 0 mm 0 mps 682 mmHg 26%
    15:00 +33°C° 0 mm 1 mps 682 mmHg 26%
    16:00 +32°C° 0 mm 1 mps 681 mmHg 27%
    17:00 +32°C° 0 mm 1 mps 681 mmHg 28%
    18:00 +30°C° 0 mm 1 mps 681 mmHg 32%
    19:00 +28°C° 0 mm 1 mps 681 mmHg 37%
    20:00 +27°C° 0 mm 1 mps 681 mmHg 41%
    21:00 +26°C° 0 mm 1 mps 681 mmHg 43%
    22:00 +26°C° 0 mm 1 mps 681 mmHg 44%
    23:00 +25°C° 0 mm 1 mps 681 mmHg 46%

    6 April, Monday

    Time Temperature Precipitation Wind Pressure Humidity
    00:00 +25°C° 0 mm 1 mps 681 mmHg 47%
    01:00 +24°C° 0 mm 1 mps 681 mmHg 49%
    02:00 +24°C° 0 mm 1 mps 681 mmHg 51%
    03:00 +23°C° 0 mm 1 mps 680 mmHg 52%
    04:00 +23°C° 0 mm 1 mps 680 mmHg 53%
    05:00 +23°C° 0 mm 1 mps 680 mmHg 55%
    06:00 +24°C° 0 mm 1 mps 680 mmHg 54%
    07:00 +24°C° 0 mm 1 mps 681 mmHg 54%
    08:00 +25°C° 0 mm 1 mps 681 mmHg 54%
    09:00 +28°C° 0 mm 2 mps 682 mmHg 46%
    10:00 +30°C° 0 mm 2 mps 682 mmHg 38%
    11:00 +34°C° 0 mm 2 mps 683 mmHg 30%
    12:00 +34°C° 0 mm 2 mps 682 mmHg 29%
    13:00 +34°C° 0 mm 2 mps 681 mmHg 29%
    14:00 +34°C° 0 mm 2 mps 681 mmHg 28%
    15:00 +34°C° 0 mm 2 mps 680 mmHg 27%
    16:00 +34°C° 0 mm 2 mps 680 mmHg 27%
    17:00 +33°C° 0 mm 1 mps 680 mmHg 26%
    18:00 +31°C° 0 mm 2 mps 679 mmHg 31%
    19:00 +28°C° 0 mm 2 mps 679 mmHg 35%
    20:00 +26°C° 0 mm 2 mps 679 mmHg 40%
    21:00 +26°C° 0 mm 2 mps 679 mmHg 42%
    22:00 +25°C° 0 mm 2 mps 679 mmHg 45%
    23:00 +24°C° 0 mm 2 mps 680 mmHg 48%
    Show more